Time,TemperatureF,DewpointF,PressureIn,WindDirection,WindDirectionDegrees,WindSpeedMPH,WindSpeedGustMPH,Humidity,HourlyPrecipIn,Conditions,Clouds,dailyrainin,SoftwareType,DateUTC
2013-01-14 00:09:00,74.0,64.0,30.14,SE,129,4.0,4.0,71,0.00,,,0.00,Wunderground v.1.15,2013-01-14 05:09:00,
2013-01-14 00:19:00,73.9,64.3,30.14,East,85,3.0,8.0,72,0.00,,,0.00,Wunderground v.1.15,2013-01-14 05:19:00,
2013-01-14 00:29:00,74.0,64.4,30.14,East,86,5.0,5.0,72,0.00,,,0.00,Wunderground v.1.15,2013-01-14 05:29:00,
2013-01-14 00:39:00,73.9,64.3,30.14,SE,124,4.0,5.0,72,0.00,,,0.00,Wunderground v.1.15,2013-01-14 05:39:00,
2013-01-14 00:49:00,73.9,64.3,30.15,SSE,167,4.0,4.0,72,0.00,,,0.00,Wunderground v.1.15,2013-01-14 05:49:00,
2013-01-14 00:59:00,73.9,64.3,30.15,ESE,120,4.0,5.0,72,0.00,,,0.00,Wunderground v.1.15,2013-01-14 05:59:00,
2013-01-14 01:09:00,73.8,64.2,30.15,ESE,122,4.0,4.0,72,0.00,,,0.00,Wunderground v.1.15,2013-01-14 06:09:00,
2013-01-14 01:19:00,73.8,64.6,30.15,SSE,149,4.0,4.0,73,0.00,,,0.00,Wunderground v.1.15,2013-01-14 06:19:00,
2013-01-14 01:29:00,73.9,64.7,30.15,South,186,5.0,5.0,73,0.00,,,0.00,Wunderground v.1.15,2013-01-14 06:29:00,
2013-01-14 01:39:00,73.8,64.6,30.14,ESE,121,6.0,6.0,73,0.00,,,0.00,Wunderground v.1.15,2013-01-14 06:39:00,
2013-01-14 01:49:00,73.8,64.6,30.15,SE,141,6.0,6.0,73,0.00,,,0.00,Wunderground v.1.15,2013-01-14 06:49:00,
2013-01-14 01:59:00,73.7,64.5,30.15,South,187,4.0,6.0,73,0.00,,,0.00,Wunderground v.1.15,2013-01-14 06:59:00,
2013-01-14 02:09:00,73.6,64.0,30.15,SE,124,5.0,5.0,72,0.00,,,0.00,Wunderground v.1.15,2013-01-14 07:09:00,
2013-01-14 02:19:00,73.5,64.3,30.15,SE,124,3.0,4.0,73,0.00,,,0.00,Wunderground v.1.15,2013-01-14 07:19:00,
2013-01-14 02:29:00,73.4,63.8,30.15,ESE,108,4.0,5.0,72,0.00,,,0.00,Wunderground v.1.15,2013-01-14 07:29:00,
2013-01-14 02:39:00,73.3,63.3,30.15,SE,134,3.0,5.0,71,0.00,,,0.00,Wunderground v.1.15,2013-01-14 07:39:00,
2013-01-14 02:49:00,73.2,62.4,30.15,SE,136,3.0,3.0,69,0.00,,,0.00,Wunderground v.1.15,2013-01-14 07:49:00,
2013-01-14 02:59:00,73.3,62.9,30.15,East,91,3.0,4.0,70,0.00,,,0.00,Wunderground v.1.15,2013-01-14 07:59:00,
2013-01-14 03:09:00,73.3,62.9,30.14,SSE,152,4.0,4.0,70,0.00,,,0.00,Wunderground v.1.15,2013-01-14 08:09:00,
2013-01-14 03:19:00,73.2,63.2,30.14,SE,127,3.0,3.0,71,0.00,,,0.00,Wunderground v.1.15,2013-01-14 08:19:00,
2013-01-14 03:29:00,73.3,63.3,30.14,SSE,150,4.0,4.0,71,0.00,,,0.00,Wunderground v.1.15,2013-01-14 08:29:00,
2013-01-14 03:39:00,73.2,62.8,30.14,ESE,121,3.0,3.0,70,0.00,,,0.00,Wunderground v.1.15,2013-01-14 08:39:00,
2013-01-14 03:49:00,73.1,62.7,30.14,SE,129,3.0,3.0,70,0.00,,,0.00,Wunderground v.1.15,2013-01-14 08:49:00,
2013-01-14 03:59:00,73.1,62.7,30.14,SE,124,3.0,3.0,70,0.00,,,0.00,Wunderground v.1.15,2013-01-14 08:59:00,
2013-01-14 04:09:00,73.1,62.7,30.13,East,98,3.0,11.0,70,0.00,,,0.00,Wunderground v.1.15,2013-01-14 09:09:00,
2013-01-14 04:19:00,73.3,62.5,30.13,SE,132,5.0,5.0,69,0.00,,,0.00,Wunderground v.1.15,2013-01-14 09:19:00,
2013-01-14 04:29:00,73.3,62.9,30.13,ESE,107,4.0,5.0,70,0.00,,,0.00,Wunderground v.1.15,2013-01-14 09:29:00,
2013-01-14 04:39:00,73.3,62.5,30.14,ESE,105,4.0,4.0,69,0.00,,,0.00,Wunderground v.1.15,2013-01-14 09:39:00,
2013-01-14 04:49:00,73.5,62.7,30.14,ESE,115,5.0,6.0,69,0.00,,,0.00,Wunderground v.1.15,2013-01-14 09:49:00,
2013-01-14 04:59:00,73.3,63.3,30.14,ESE,104,4.0,4.0,71,0.00,,,0.00,Wunderground v.1.15,2013-01-14 09:59:00,
2013-01-14 05:09:00,73.0,63.0,30.14,East,99,3.0,3.0,71,0.00,,,0.00,Wunderground v.1.15,2013-01-14 10:09:00,
2013-01-14 05:19:00,72.9,63.3,30.14,SE,124,3.0,5.0,72,0.00,,,0.00,Wunderground v.1.15,2013-01-14 10:19:00,
2013-01-14 05:29:00,73.0,63.0,30.14,SSE,163,5.0,5.0,71,0.00,,,0.00,Wunderground v.1.15,2013-01-14 10:29:00,
2013-01-14 05:39:00,72.9,62.9,30.14,ESE,115,4.0,4.0,71,0.00,,,0.00,Wunderground v.1.15,2013-01-14 10:39:00,
2013-01-14 05:49:00,72.9,63.7,30.14,SE,127,4.0,5.0,73,0.00,,,0.00,Wunderground v.1.15,2013-01-14 10:49:00,
2013-01-14 06:00:00,72.7,63.5,30.15,SE,136,3.0,6.0,73,0.00,,,0.00,Wunderground v.1.15,2013-01-14 11:00:00,
2013-01-14 06:09:00,72.7,63.1,30.15,SE,124,4.0,6.0,72,0.00,,,0.00,Wunderground v.1.15,2013-01-14 11:09:00,
2013-01-14 06:19:00,72.9,63.3,30.15,SE,126,5.0,5.0,72,0.00,,,0.00,Wunderground v.1.15,2013-01-14 11:19:00,
2013-01-14 06:29:00,72.8,63.2,30.16,SE,143,4.0,4.0,72,0.00,,,0.00,Wunderground v.1.15,2013-01-14 11:29:00,
2013-01-14 06:39:00,72.8,62.4,30.16,SSE,162,4.0,4.0,70,0.00,,,0.00,Wunderground v.1.15,2013-01-14 11:39:00,
2013-01-14 06:49:00,72.7,62.3,30.16,SSE,158,3.0,5.0,70,0.00,,,0.00,Wunderground v.1.15,2013-01-14 11:49:00,
2013-01-14 06:59:00,72.6,62.7,30.17,South,174,3.0,4.0,71,0.00,,,0.00,Wunderground v.1.15,2013-01-14 11:59:00,
2013-01-14 07:00:00,72.7,62.8,30.16,SE,135,3.0,-999.0,71,0.00,,,0.00,Wunderground v.1.15,2013-01-14 12:00:00,
2013-01-14 07:05:00,72.7,62.8,30.16,SE,135,3.0,-999.0,71,0.00,,,0.00,Wunderground v.1.15,2013-01-14 12:05:00,
2013-01-14 07:10:00,72.7,62.8,30.16,SE,135,3.0,-999.0,71,0.00,,,0.00,Wunderground v.1.15,2013-01-14 12:10:00,
2013-01-14 07:15:00,72.5,63.4,30.17,SSE,158,2.0,-999.0,73,0.00,,,0.00,Wunderground v.1.15,2013-01-14 12:15:00,
2013-01-14 07:20:00,72.5,63.4,30.17,SSE,158,2.0,-999.0,73,0.00,,,0.00,Wunderground v.1.15,2013-01-14 12:20:00,
2013-01-14 07:25:00,72.5,63.4,30.17,SSE,158,2.0,-999.0,73,0.00,,,0.00,Wunderground v.1.15,2013-01-14 12:25:00,
2013-01-14 07:30:00,72.5,63.4,30.17,SSE,158,2.0,-999.0,73,0.00,,,0.00,Wunderground v.1.15,2013-01-14 12:30:00,
2013-01-14 08:00:00,73.6,64.4,30.17,ESE,122,4.0,5.0,73,0.00,,,0.00,Wunderground v.1.15,2013-01-14 13:00:00,
2013-01-14 08:10:00,74.6,65.4,30.17,SE,129,4.0,4.0,73,0.00,,,0.00,Wunderground v.1.15,2013-01-14 13:10:00,
2013-01-14 08:20:00,75.0,65.4,30.17,SE,134,5.0,7.0,72,0.00,,,0.00,Wunderground v.1.15,2013-01-14 13:20:00,
2013-01-14 08:30:00,75.0,65.4,30.17,East,99,5.0,5.0,72,0.00,,,0.00,Wunderground v.1.15,2013-01-14 13:30:00,
2013-01-14 08:40:00,75.4,65.3,30.17,ESE,118,4.0,6.0,71,0.00,,,0.00,Wunderground v.1.15,2013-01-14 13:40:00,
2013-01-14 08:50:00,75.6,65.1,30.17,SE,134,5.0,6.0,70,0.00,,,0.00,Wunderground v.1.15,2013-01-14 13:50:00,
2013-01-14 09:00:00,75.8,64.9,30.17,ENE,67,6.0,8.0,69,0.00,,,0.00,Wunderground v.1.15,2013-01-14 14:00:00,
2013-01-14 09:10:00,75.8,64.9,30.17,ESE,111,6.0,6.0,69,0.00,,,0.00,Wunderground v.1.15,2013-01-14 14:10:00,
2013-01-14 09:20:00,76.0,65.1,30.18,SE,146,6.0,10.0,69,0.00,,,0.00,Wunderground v.1.15,2013-01-14 14:20:00,
2013-01-14 09:30:00,76.1,65.2,30.18,SE,140,6.0,8.0,69,0.00,,,0.00,Wunderground v.1.15,2013-01-14 14:30:00,
2013-01-14 09:40:00,76.5,65.6,30.18,SSE,158,6.0,6.0,69,0.00,,,0.00,Wunderground v.1.15,2013-01-14 14:40:00,
2013-01-14 09:50:00,76.7,66.2,30.18,ESE,112,6.0,6.0,70,0.00,,,0.00,Wunderground v.1.15,2013-01-14 14:50:00,
2013-01-14 10:00:00,76.8,65.4,30.19,ESE,113,5.0,7.0,68,0.00,,,0.00,Wunderground v.1.15,2013-01-14 15:00:00,
2013-01-14 10:10:00,76.6,64.4,30.19,East,94,6.0,6.0,66,0.00,,,0.00,Wunderground v.1.15,2013-01-14 15:10:00,
2013-01-14 10:20:00,77.2,65.0,30.19,South,173,6.0,6.0,66,0.00,,,0.00,Wunderground v.1.15,2013-01-14 15:20:00,
2013-01-14 10:30:00,77.5,64.8,30.18,East,94,5.0,5.0,65,0.00,,,0.00,Wunderground v.1.15,2013-01-14 15:30:00,
2013-01-14 10:40:00,77.5,64.4,30.18,East,81,6.0,6.0,64,0.00,,,0.00,Wunderground v.1.15,2013-01-14 15:40:00,
2013-01-14 10:50:00,77.4,64.7,30.18,ESE,122,6.0,6.0,65,0.00,,,0.00,Wunderground v.1.15,2013-01-14 15:50:00,
2013-01-14 11:00:00,77.5,64.4,30.18,WNW,297,5.0,5.0,64,0.00,,,0.00,Wunderground v.1.15,2013-01-14 16:00:00,
2013-01-14 11:10:00,77.4,65.1,30.17,East,80,6.0,6.0,66,0.00,,,0.00,Wunderground v.1.15,2013-01-14 16:10:00,
2013-01-14 11:20:00,77.4,65.1,30.17,SE,127,6.0,8.0,66,0.00,,,0.00,Wunderground v.1.15,2013-01-14 16:20:00,
2013-01-14 11:30:00,77.6,64.9,30.17,South,184,7.0,7.0,65,0.00,,,0.00,Wunderground v.1.15,2013-01-14 16:30:00,
2013-01-14 11:40:00,77.7,65.4,30.17,ESE,120,6.0,6.0,66,0.00,,,0.00,Wunderground v.1.15,2013-01-14 16:40:00,
2013-01-14 11:50:00,78.1,65.8,30.17,ENE,70,5.0,5.0,66,0.00,,,0.00,Wunderground v.1.15,2013-01-14 16:50:00,
2013-01-14 12:00:00,78.0,65.7,30.16,SE,141,5.0,5.0,66,0.00,,,0.00,Wunderground v.1.15,2013-01-14 17:00:00,
2013-01-14 12:10:00,78.1,65.4,30.16,ESE,117,5.0,7.0,65,0.00,,,0.00,Wunderground v.1.15,2013-01-14 17:10:00,
2013-01-14 12:20:00,77.8,66.0,30.16,East,100,5.0,10.0,67,0.00,,,0.00,Wunderground v.1.15,2013-01-14 17:20:00,
2013-01-14 12:30:00,77.9,66.1,30.15,East,99,6.0,6.0,67,0.00,,,0.00,Wunderground v.1.15,2013-01-14 17:30:00,
2013-01-14 12:40:00,77.6,65.8,30.15,ESE,121,5.0,6.0,67,0.00,,,0.00,Wunderground v.1.15,2013-01-14 17:40:00,
2013-01-14 12:50:00,78.1,66.2,30.15,ENE,64,5.0,5.0,67,0.00,,,0.00,Wunderground v.1.15,2013-01-14 17:50:00,
2013-01-14 13:00:00,77.9,65.6,30.15,SSW,204,4.0,4.0,66,0.00,,,0.00,Wunderground v.1.15,2013-01-14 18:00:00,
2013-01-14 13:10:00,78.5,66.2,30.15,ESE,120,4.0,8.0,66,0.00,,,0.00,Wunderground v.1.15,2013-01-14 18:10:00,
2013-01-14 13:20:00,78.6,66.3,30.14,ESE,117,5.0,5.0,66,0.00,,,0.00,Wunderground v.1.15,2013-01-14 18:20:00,
2013-01-14 13:30:00,78.0,66.2,30.13,ESE,113,5.0,5.0,67,0.00,,,0.00,Wunderground v.1.15,2013-01-14 18:30:00,
2013-01-14 13:40:00,78.0,65.7,30.13,SSE,152,6.0,6.0,66,0.00,,,0.00,Wunderground v.1.15,2013-01-14 18:40:00,
2013-01-14 13:50:00,77.5,66.1,30.13,SE,134,6.0,7.0,68,0.00,,,0.00,Wunderground v.1.15,2013-01-14 18:50:00,
2013-01-14 13:59:00,78.4,65.7,30.14,SE,141,5.0,5.0,65,0.00,,,0.00,Wunderground v.1.15,2013-01-14 18:59:00,
2013-01-14 14:09:00,78.3,65.6,30.14,SE,136,4.0,4.0,65,0.00,,,0.00,Wunderground v.1.15,2013-01-14 19:09:00,
2013-01-14 14:19:00,77.8,66.0,30.14,ESE,107,5.0,5.0,67,0.00,,,0.00,Wunderground v.1.15,2013-01-14 19:19:00,
2013-01-14 14:29:00,78.2,65.9,30.14,ESE,120,4.0,4.0,66,0.00,,,0.00,Wunderground v.1.15,2013-01-14 19:29:00,
2013-01-14 14:39:00,77.9,65.6,30.14,SE,124,5.0,5.0,66,0.00,,,0.00,Wunderground v.1.15,2013-01-14 19:39:00,
2013-01-14 14:49:00,77.8,66.0,30.14,South,174,4.0,4.0,67,0.00,,,0.00,Wunderground v.1.15,2013-01-14 19:49:00,
2013-01-14 14:59:00,78.0,66.2,30.14,ESE,110,4.0,4.0,67,0.00,,,0.00,Wunderground v.1.15,2013-01-14 19:59:00,
2013-01-14 15:09:00,77.7,66.3,30.14,East,85,5.0,5.0,68,0.00,,,0.00,Wunderground v.1.15,2013-01-14 20:09:00,
2013-01-14 15:19:00,78.3,66.9,30.14,SE,124,3.0,5.0,68,0.00,,,0.00,Wunderground v.1.15,2013-01-14 20:19:00,
2013-01-14 15:29:00,77.7,66.3,30.14,NE,48,5.0,8.0,68,0.00,,,0.00,Wunderground v.1.15,2013-01-14 20:29:00,
2013-01-14 15:39:00,77.8,66.8,30.14,SSW,195,4.0,4.0,69,0.00,,,0.00,Wunderground v.1.15,2013-01-14 20:39:00,
2013-01-14 15:49:00,78.4,67.0,30.15,ESE,115,3.0,3.0,68,0.00,,,0.00,Wunderground v.1.15,2013-01-14 20:49:00,
2013-01-14 15:59:00,77.8,66.4,30.15,ESE,121,4.0,4.0,68,0.00,,,0.00,Wunderground v.1.15,2013-01-14 20:59:00,
2013-01-14 16:09:00,76.9,66.4,30.15,ESE,106,4.0,4.0,70,0.00,,,0.00,Wunderground v.1.15,2013-01-14 21:09:00,
2013-01-14 16:19:00,76.7,66.2,30.15,SE,131,3.0,3.0,70,0.00,,,0.00,Wunderground v.1.15,2013-01-14 21:19:00,
2013-01-14 16:29:00,76.7,66.6,30.16,East,83,3.0,3.0,71,0.00,,,0.00,Wunderground v.1.15,2013-01-14 21:29:00,
2013-01-14 16:39:00,76.8,66.7,30.16,East,92,2.0,3.0,71,0.00,,,0.00,Wunderground v.1.15,2013-01-14 21:39:00,
2013-01-14 16:49:00,76.5,66.4,30.16,ENE,74,3.0,5.0,71,0.00,,,0.00,Wunderground v.1.15,2013-01-14 21:49:00,
2013-01-14 16:59:00,76.3,66.2,30.16,East,91,3.0,4.0,71,0.00,,,0.00,Wunderground v.1.15,2013-01-14 21:59:00,
2013-01-14 17:09:00,75.8,65.7,30.17,East,94,4.0,4.0,71,0.00,,,0.00,Wunderground v.1.15,2013-01-14 22:09:00,
2013-01-14 17:19:00,75.8,66.1,30.17,East,94,3.0,3.0,72,0.00,,,0.00,Wunderground v.1.15,2013-01-14 22:19:00,
2013-01-14 17:29:00,75.8,66.1,30.17,ESE,120,3.0,3.0,72,0.00,,,0.00,Wunderground v.1.15,2013-01-14 22:29:00,
2013-01-14 17:39:00,75.5,66.2,30.17,SE,124,3.0,3.0,73,0.00,,,0.00,Wunderground v.1.15,2013-01-14 22:39:00,
2013-01-14 17:49:00,75.1,65.9,30.17,ESE,113,3.0,5.0,73,0.00,,,0.00,Wunderground v.1.15,2013-01-14 22:49:00,
2013-01-14 18:00:00,74.8,66.0,30.17,ESE,122,2.0,2.0,74,0.00,,,0.00,Wunderground v.1.15,2013-01-14 23:00:00,
2013-01-14 18:09:00,74.6,65.8,30.17,ESE,110,2.0,2.0,74,0.00,,,0.00,Wunderground v.1.15,2013-01-14 23:09:00,
2013-01-14 18:19:00,74.6,65.8,30.17,East,94,3.0,3.0,74,0.00,,,0.00,Wunderground v.1.15,2013-01-14 23:19:00,
2013-01-14 18:29:00,74.5,66.1,30.18,ESE,113,2.0,3.0,75,0.00,,,0.00,Wunderground v.1.15,2013-01-14 23:29:00,
2013-01-14 18:39:00,74.5,66.1,30.18,ESE,108,4.0,4.0,75,0.00,,,0.00,Wunderground v.1.15,2013-01-14 23:39:00,
2013-01-14 18:49:00,74.4,66.0,30.18,SE,138,3.0,3.0,75,0.00,,,0.00,Wunderground v.1.15,2013-01-14 23:49:00,
2013-01-14 18:59:00,74.3,65.9,30.18,ESE,113,3.0,3.0,75,0.00,,,0.00,Wunderground v.1.15,2013-01-14 23:59:00,
2013-01-14 19:09:00,74.2,65.8,30.18,East,85,2.0,3.0,75,0.00,,,0.00,Wunderground v.1.15,2013-01-15 00:09:00,
2013-01-14 19:19:00,74.2,66.1,30.18,ESE,110,2.0,2.0,76,0.00,,,0.00,Wunderground v.1.15,2013-01-15 00:19:00,
2013-01-14 19:29:00,74.2,65.8,30.18,East,81,3.0,3.0,75,0.00,,,0.00,Wunderground v.1.15,2013-01-15 00:29:00,
2013-01-14 19:39:00,74.1,66.0,30.18,ESE,113,2.0,2.0,76,0.00,,,0.00,Wunderground v.1.15,2013-01-15 00:39:00,
2013-01-14 19:49:00,74.0,66.0,30.18,ESE,121,2.0,4.0,76,0.00,,,0.00,Wunderground v.1.15,2013-01-15 00:49:00,
2013-01-14 19:59:00,74.2,66.1,30.18,SE,132,3.0,3.0,76,0.00,,,0.00,Wunderground v.1.15,2013-01-15 00:59:00,
2013-01-14 20:09:00,74.0,66.0,30.18,SE,130,1.0,2.0,76,0.00,,,0.00,Wunderground v.1.15,2013-01-15 01:09:00,
2013-01-14 20:19:00,74.1,66.0,30.17,SE,138,3.0,3.0,76,0.00,,,0.00,Wunderground v.1.15,2013-01-15 01:19:00,
2013-01-14 20:30:00,74.4,66.7,30.17,East,84,3.0,4.0,77,0.00,,,0.00,Wunderground v.1.15,2013-01-15 01:30:00,
2013-01-14 20:39:00,74.4,67.1,30.17,East,90,3.0,3.0,78,0.00,,,0.00,Wunderground v.1.15,2013-01-15 01:39:00,
2013-01-14 20:49:00,74.4,67.5,30.17,ESE,111,3.0,3.0,79,0.00,,,0.00,Wunderground v.1.15,2013-01-15 01:49:00,
2013-01-14 20:59:00,74.5,67.6,30.17,East,89,3.0,3.0,79,0.00,,,0.00,Wunderground v.1.15,2013-01-15 01:59:00,
2013-01-14 21:09:00,74.6,67.7,30.17,ESE,108,3.0,7.0,79,0.00,,,0.00,Wunderground v.1.15,2013-01-15 02:09:00,
2013-01-14 21:19:00,74.8,67.8,30.17,East,99,4.0,4.0,79,0.00,,,0.00,Wunderground v.1.15,2013-01-15 02:19:00,
2013-01-14 21:29:00,74.6,67.3,30.17,ESE,112,4.0,4.0,78,0.00,,,0.00,Wunderground v.1.15,2013-01-15 02:29:00,
2013-01-14 21:39:00,74.6,66.9,30.17,SE,136,5.0,5.0,77,0.00,,,0.00,Wunderground v.1.15,2013-01-15 02:39:00,
2013-01-14 21:49:00,74.6,66.5,30.17,East,97,4.0,4.0,76,0.00,,,0.00,Wunderground v.1.15,2013-01-15 02:49:00,
2013-01-14 21:59:00,74.9,66.8,30.17,ESE,118,4.0,5.0,76,0.00,,,0.00,Wunderground v.1.15,2013-01-15 02:59:00,
2013-01-14 22:09:00,75.1,67.4,30.17,ESE,118,4.0,5.0,77,0.00,,,0.00,Wunderground v.1.15,2013-01-15 03:09:00,
2013-01-14 22:19:00,75.0,66.9,30.16,East,98,5.0,5.0,76,0.00,,,0.00,Wunderground v.1.15,2013-01-15 03:19:00,
2013-01-14 22:29:00,74.9,67.2,30.16,ESE,115,5.0,5.0,77,0.00,,,0.00,Wunderground v.1.15,2013-01-15 03:29:00,
2013-01-14 22:39:00,74.9,67.2,30.16,ESE,103,5.0,5.0,77,0.00,,,0.00,Wunderground v.1.15,2013-01-15 03:39:00,
2013-01-14 22:49:00,74.9,67.2,30.16,East,99,5.0,5.0,77,0.00,,,0.00,Wunderground v.1.15,2013-01-15 03:49:00,
2013-01-14 22:59:00,74.9,67.6,30.16,ESE,108,5.0,6.0,78,0.00,,,0.00,Wunderground v.1.15,2013-01-15 03:59:00,
2013-01-14 23:09:00,74.4,67.5,30.16,ESE,118,5.0,6.0,79,0.00,,,0.00,Wunderground v.1.15,2013-01-15 04:09:00,
2013-01-14 23:19:00,74.6,68.0,30.16,ESE,108,4.0,4.0,80,0.00,,,0.00,Wunderground v.1.15,2013-01-15 04:19:00,
2013-01-14 23:29:00,74.7,67.8,30.15,ESE,106,4.0,4.0,79,0.00,,,0.00,Wunderground v.1.15,2013-01-15 04:29:00,
2013-01-14 23:39:00,74.8,67.8,30.15,ENE,75,5.0,7.0,79,0.00,,,0.00,Wunderground v.1.15,2013-01-15 04:39:00,
2013-01-14 23:49:00,74.7,67.4,30.15,ESE,108,5.0,9.0,78,0.00,,,0.00,Wunderground v.1.15,2013-01-15 04:49:00,